This is the latest recevied weather packets stored in our database for station/object DO3MHA-13. If no packets are shown the sender has not sent any weather packets the latest 1 day(s).
| Time | Temp. | Humidity | Pressure | Rain* | Wind** | Luminosity | Snow |
|---|---|---|---|---|---|---|---|
| 1778036004 | - | - | 998.7 hPa | 0 mm | 0.89 m/s, 180° | - | - |
| 1778035994 | - | - | 998.7 hPa | 0 mm | 0.45 m/s, 203° | - | - |
| 1778035984 | - | - | 998.6 hPa | 0 mm | 0.45 m/s, 225° | - | - |
| 1778035964 | - | - | 998.6 hPa | 0 mm | 0.89 m/s, 225° | - | - |
| 1778035944 | - | - | 998.6 hPa | 0 mm | 0.89 m/s, 225° | - | - |
| 1778035934 | - | - | 998.7 hPa | 0 mm | 0.89 m/s, 225° | - | - |
| 1778035904 | - | - | 998.6 hPa | 0 mm | 0.89 m/s, 225° | - | - |
| 1778035894 | - | - | 998.7 hPa | 0 mm | 0.89 m/s, 225° | - | - |
| 1778035864 | - | - | 998.6 hPa | 0 mm | 0.89 m/s, 225° | - | - |
| 1778035854 | - | - | 998.7 hPa | 0 mm | 0.89 m/s, 225° | - | - |
| 1778035844 | 12.78° C | 77% | 998.6 hPa | 0 mm | 0.89 m/s, 225° | - | - |
| 1778035794 | - | - | 998.6 hPa | 0 mm | 0.89 m/s, 225° | - | - |
| 1778035784 | - | - | 998.7 hPa | 0 mm | 0.89 m/s, 225° | - | - |
| 1778035774 | - | - | 837.1 hPa | 0 mm | 0.89 m/s, 225° | - | - |
| 1778035754 | - | - | 998.6 hPa | 0 mm | 0.89 m/s, 180° | - | - |
| 1778035744 | - | - | 998.7 hPa | 0 mm | 0.89 m/s, 225° | - | - |
| 1778035714 | - | - | 998.6 hPa | 0 mm | 0.89 m/s, 225° | - | - |
| 1778035704 | - | - | 998.7 hPa | 0 mm | 0.89 m/s, 225° | - | - |
| 1778035694 | - | - | 998.7 hPa | 0 mm | 0.89 m/s, 203° | - | - |
| 1778035684 | - | - | 998.7 hPa | 0 mm | 0.89 m/s, 180° | - | - |
| 1778035674 | - | - | 998.7 hPa | 0 mm | 1.34 m/s, 203° | - | - |
| 1778035664 | - | - | 998.7 hPa | 0 mm | 1.34 m/s, 180° | - | - |
| 1778035654 | - | - | 998.8 hPa | 0 mm | 1.34 m/s, 225° | - | - |
| 1778035634 | - | - | 998.7 hPa | 0 mm | 1.79 m/s, 225° | - | - |
| 1778035624 | - | - | 998.8 hPa | 0 mm | 1.79 m/s, 225° | - | - |
* Rain latest hour (hover to see other rain measurements)
** Current wind speed in m/s (hover to see current wind gust speed)